Weather History for La Grange, GA

Change the Weather History Date:

Saturday, January 19, 2013

  Actual Average Record
Temperature  
Mean Temperature 43 °F -  
Max Temperature 59 °F 55 °F 75 °F (1990)
Min Temperature 27 °F 33 °F -2 °F (1977)
Degree Days  
Heating Degree Days 22    
Moisture  
Dew Point 31 °F    
Average Humidity 71    
Maximum Humidity 100    
Minimum Humidity 33    
Precipitation  
Precipitation 0.00 in - - ()
Sea Level Pressure  
Sea Level Pressure 30.34 in    
Wind  
Wind Speed 1 mph (West)    
Max Wind Speed 7 mph    
Max Gust Speed -    
Visibility 10 miles    
Events      
Averages and records for this station are not official NWS values.
T = Trace of Precipitation, MM = Missing Value Source: NWS Daily Summary

Daily Weather History Graph

Daily Weather History Graph

Search for Another Location

Airport:

Trip Planner

Search our weather history database for the weather conditions in past years. The results will help you decide how hot, cold, wet, or windy it might be!

Date:

Astronomy

Jan. 19, 2013 Rise Set
Actual Time 7:42 AM EST 6:00 PM EST
Civil Twilight 7:15 AM EST 6:27 PM EST
Nautical Twilight 6:45 AM EST 6:57 PM EST
Astronomical Twilight 6:15 AM EST 7:26 PM EST
Moon 12:22 PM EST (1/19) 1:20 AM EST (1/19)
Length of Visible Light 11h 11m
Length of Day
10h 18m
First Quarter, 57% of the Moon is Illuminated
Jan 19
First Quarter
Jan 26
Full
Feb 3
Last Quarter
Feb 10
New
Feb 17
First Quarter

Hourly Weather History & Observations

Time (EST) Temp. Windchill Dew Point Humidity Pressure Visibility Wind Dir Wind Speed Gust Speed Precip Events Conditions
12:15 AM 31.6 °F - 30.9 °F 97% 30.45 in 10.0 mi Calm Calm - N/A   Clear
12:35 AM 30.9 °F - 30.0 °F 96% 30.44 in 10.0 mi Calm Calm - N/A   Clear
12:55 AM 30.2 °F - 30.2 °F 100% 30.44 in 10.0 mi Calm Calm - N/A   Clear
1:15 AM 30.2 °F - 30.0 °F 99% 30.43 in 10.0 mi Calm Calm - N/A   Clear
1:35 AM 30.0 °F - 29.5 °F 98% 30.42 in 10.0 mi Calm Calm - N/A   Clear
1:55 AM 31.1 °F - 30.2 °F 96% 30.42 in 10.0 mi Calm Calm - N/A   Clear
2:15 AM 30.6 °F - 27.5 °F 88% 30.41 in 10.0 mi Calm Calm - N/A   Clear
2:35 AM 30.0 °F - 27.9 °F 92% 30.41 in 10.0 mi Calm Calm - N/A   Clear
2:55 AM 30.2 °F - 28.2 °F 92% 30.41 in 10.0 mi Calm Calm - N/A   Clear
3:15 AM 30.4 °F - 28.2 °F 92% 30.41 in 10.0 mi Calm Calm - N/A   Clear
3:35 AM 29.8 °F - 27.5 °F 91% 30.41 in 10.0 mi Calm Calm - N/A   Clear
3:55 AM 28.8 °F - 26.8 °F 92% 30.40 in 10.0 mi Calm Calm - N/A   Clear
4:15 AM 29.3 °F - 27.5 °F 93% 30.40 in 10.0 mi Calm Calm - N/A   Clear
4:35 AM 29.1 °F - 27.7 °F 94% 30.40 in 10.0 mi Calm Calm - N/A   Clear
4:55 AM 27.9 °F 24.0 °F 25.7 °F 92% 30.40 in 10.0 mi NW 3.5 mph - N/A   Clear
5:15 AM 28.4 °F - 26.6 °F 93% 30.41 in 10.0 mi Calm Calm - N/A   Clear
5:35 AM 27.7 °F 23.8 °F 25.7 °F 92% 30.42 in 10.0 mi NW 3.5 mph - N/A   Clear
5:55 AM 27.3 °F - 25.7 °F 94% 30.42 in 10.0 mi Calm Calm - N/A   Clear
6:15 AM 27.5 °F - 26.6 °F 96% 30.42 in 10.0 mi Calm Calm - N/A   Clear
6:35 AM 27.7 °F - 26.2 °F 94% 30.42 in 10.0 mi Calm Calm - N/A   Clear
6:55 AM 27.5 °F - 25.7 °F 93% 30.41 in 10.0 mi Calm Calm - N/A   Clear
8:15 AM 28.0 °F - 26.4 °F 94% 30.42 in 10.0 mi Calm Calm - N/A   Clear
8:55 AM 31.6 °F - 29.8 °F 93% 30.43 in 10.0 mi Calm Calm - N/A   Clear
9:15 AM 34.5 °F - 31.6 °F 89% 30.43 in 10.0 mi Calm Calm - N/A   Clear
9:35 AM 39.0 °F - 31.8 °F 75% 30.43 in 10.0 mi Calm Calm - N/A   Clear
10:35 AM 44.4 °F - 30.6 °F 58% 30.44 in 10.0 mi Calm Calm - N/A   Clear
10:55 AM 46.6 °F - 30.2 °F 53% 30.43 in 10.0 mi Calm Calm - N/A   Clear
11:15 AM 49.1 °F - 30.2 °F 48% 30.42 in 10.0 mi Calm Calm - N/A   Clear
11:35 AM 51.1 °F - 31.3 °F 47% 30.41 in 10.0 mi Calm Calm - N/A   Clear
12:15 PM 54.0 °F - 32.0 °F 43% 30.38 in 10.0 mi Calm Calm - N/A   Clear
12:35 PM 55.6 °F - 32.0 °F 41% 30.36 in 10.0 mi West 3.5 mph - N/A   Clear
12:55 PM 56.7 °F - 31.1 °F 38% 30.34 in 10.0 mi SW 5.8 mph - N/A   Clear
1:15 PM 57.6 °F - 31.5 °F 37% 30.33 in 10.0 mi WSW 5.8 mph - N/A   Clear
1:35 PM 57.2 °F - 30.6 °F 36% 30.32 in 10.0 mi West 3.5 mph - N/A   Clear
1:55 PM 57.4 °F - 30.6 °F 36% 30.30 in 10.0 mi WNW 6.9 mph - N/A   Clear
2:15 PM 58.8 °F - 31.8 °F 36% 30.29 in 10.0 mi SW 6.9 mph - N/A   Clear
2:35 PM 59.0 °F - 30.9 °F 35% 30.29 in 10.0 mi Calm Calm - N/A   Clear
2:55 PM 59.0 °F - 30.9 °F 35% 30.28 in 10.0 mi Calm Calm - N/A   Clear
3:15 PM 58.3 °F - 30.2 °F 34% 30.27 in 10.0 mi Calm Calm - N/A   Clear
3:35 PM 59.5 °F - 31.1 °F 34% 30.27 in 10.0 mi Calm Calm - N/A   Clear
3:55 PM 59.2 °F - 31.1 °F 35% 30.27 in 10.0 mi Calm Calm - N/A   Clear
4:15 PM 59.5 °F - 30.6 °F 33% 30.26 in 10.0 mi SW 6.9 mph - N/A   Clear
4:35 PM 58.6 °F - 29.8 °F 34% 30.26 in 10.0 mi West 3.5 mph - N/A   Clear
4:55 PM 58.8 °F - 29.5 °F 33% 30.26 in 10.0 mi West 3.5 mph - N/A   Clear
5:15 PM 58.1 °F - 29.1 °F 33% 30.26 in 10.0 mi SW 3.5 mph - N/A   Clear
5:35 PM 56.5 °F - 29.3 °F 35% 30.26 in 10.0 mi WSW 3.5 mph - N/A   Clear
5:55 PM 55.8 °F - 30.2 °F 38% 30.26 in 10.0 mi Calm Calm - N/A   Clear
6:15 PM 50.5 °F - 32.5 °F 50% 30.25 in 10.0 mi Calm Calm - N/A   Clear
6:35 PM 46.9 °F - 34.3 °F 62% 30.25 in 10.0 mi Calm Calm - N/A   Clear
6:55 PM 46.6 °F - 34.5 °F 63% 30.26 in 10.0 mi Calm Calm - N/A   Clear
7:15 PM 44.4 °F - 35.8 °F 72% 30.26 in 10.0 mi Calm Calm - N/A   Clear
7:35 PM 41.9 °F - 36.0 °F 79% 30.26 in 10.0 mi Calm Calm - N/A   Clear
7:55 PM 42.4 °F - 34.2 °F 72% 30.26 in 10.0 mi Calm Calm - N/A   Clear
8:15 PM 41.0 °F - 36.3 °F 83% 30.27 in 10.0 mi Calm Calm - N/A   Clear
8:35 PM 41.2 °F - 36.9 °F 85% 30.27 in 10.0 mi Calm Calm - N/A   Clear
8:55 PM 40.8 °F - 35.6 °F 82% 30.27 in 10.0 mi Calm Calm - N/A   Clear
9:15 PM 39.6 °F - 35.2 °F 85% 30.27 in 10.0 mi Calm Calm - N/A   Clear
9:35 PM 39.6 °F - 35.6 °F 86% 30.27 in 10.0 mi Calm Calm - N/A   Clear
9:55 PM 38.7 °F - 35.1 °F 87% 30.26 in 10.0 mi Calm Calm - N/A   Clear
10:15 PM 37.6 °F - 35.2 °F 91% 30.26 in 10.0 mi Calm Calm - N/A   Clear
10:35 PM 37.8 °F - 35.1 °F 90% 30.26 in 10.0 mi Calm Calm - N/A   Clear
10:55 PM 38.3 °F - 35.8 °F 91% 30.26 in 10.0 mi Calm Calm - N/A   Clear
11:15 PM 37.8 °F - 34.9 °F 89% 30.26 in 10.0 mi Calm Calm - N/A   Clear
11:35 PM 36.5 °F - 34.2 °F 91% 30.25 in 10.0 mi Calm Calm - N/A   Clear
11:55 PM 35.6 °F - 34.3 °F 95% 30.24 in 10.0 mi Calm Calm - N/A   Clear